Location: Newark
(45.5000°N, 11.4167°E)
Time: 03:07:33
(UTC+00:00)

A-11 Canister half - Pass Details

Date: 20 August 2019
Orbit: 1513 x 1686 km, 47.2° (Epoch: 18 September)

Event Time Altitude Azimuth Distance (km) Brightness Sun altitude
Rises 22:57:34 0° 290° (WNW) 4,802 11.9 -32.0°
Reaches altitude 10° 23:00:38 10° 288° (WNW) 3,838 11.3 -32.1°
Maximum altitude 23:10:23 69° 208° (SSW) 1,745 8.9 -32.2°
Enters shadow 23:11:16 67° 178° (S) 1,776 8.9 -32.2°
Drops below altitude 10° 23:20:24 10° 128° (SE) 3,936 - -32.2°
Sets 23:23:36 0° 126° (SE) 4,930 - -32.2°
